Location: Roofer Observing Site
(31.3950°N, 95.8969°W)
Time: 10:56:42
(UTC-06:00)

Tiangong 1 - Visible Passes

Search period start: 21 February 2018 00:00
Search period end: 03 March 2018 00:00
Orbit: 247 x 269 km, 42.8° (Epoch: 21 February)

Date Brightness Start Highest point End Pass type
(mag) Time Alt. Az. Time Alt. Az. Time Alt. Az.
21 Feb 1.0 05:57:20 35° SW 05:57:24 35° SW 05:59:31 10° SSE visible
22 Feb 2.6 05:51:54 15° SSW 05:51:54 15° SSW 05:52:47 10° S visible
26 Feb 3.3 19:49:03 10° SW 19:49:20 12° SW 19:49:20 12° SW visible
27 Feb 1.9 19:41:12 10° SW 19:42:36 32° SW 19:42:36 32° SW visible
28 Feb 1.0 19:33:17 10° WSW 19:35:29 46° NNW 19:35:30 46° NNW visible
01 Mar 2.0 19:25:17 10° W 19:27:16 27° NNW 19:28:03 21° N visible
02 Mar 2.7 19:17:10 10° WNW 19:18:50 18° NNW 19:20:14 12° NNE visible
